Weather in Lyady

Russia / Pskov Oblast     58°37′46″N   28°46′29″E
temp.,
°C
wind,
m/s
gust,
m/s
humid.,
%
clouds,
%
prec.,
mm/h
press.,
hPa
HPBL,
m
17 september, fri
fri1700:00+5e2680100 0.0 1021171
03:00+4ene2687100 0.0 1021191
06:00+4ene2789100 0.0 1021228
09:00+6e487739 0.0 1021408
12:00+10e574835 0.0 10211447
15:00+12e464417 0.0 10211663
18:00+10e475462 0.0 10221113
21:00+5ene2108012 0.0 1023229
18 september, sat
sat1800:00+3ene2108727 0.0 1024241
03:00+3ene2108699 0.0 1025207
06:00+2ene298479 0.0 1025196
09:00+6e3106348 0.0 1026407
12:00+11e474538 0.0 10251552
15:00+13e564213 0.0 10241769
18:00+10ene485357 0.0 10241242
21:00+6ne4127287 0.0 1024441
19 september, sun
sun1900:00+5ene4117947 0.0 1025461
03:00+4ene4127938 0.0 1025437
06:00+3ene41285100 0.0 1025444
09:00+5ene4137161 0.0 1025558
12:00+10ene695045 0.0 10251149
15:00+11e6845100 0.0 10241396
18:00+10ene595675 0.0 10241309
21:00+6ene4116888 0.0 1025692
20 september, mon
mon2000:00+5ene41273100 0.0 1025595
03:00+4ene41277100 0.0 1025568
06:00+4ne41279100 0.0 1025567
09:00+4ne51274100 0.0 1026634
12:00+7ene695897 0.0 1026958
15:00+9ene5849100 0.0 10251222
18:00+7ene5955100 0.0 10241100
21:00+5ene4116299 0.0 1025778
21 september, tue
tue2100:00+3ne4117276 0.0 1024584
03:00+2ne4107991 0.0 1023446
06:00+1ne41084100 0.0 1023414
09:00+2ne4874100 0.0 1022464
12:00+7ne4653100 0.0 1021853
15:00+9ne4650100 0.0 10201021
18:00+8ne3657100 0.0 10201003
21:00+6nne3764100 0.0 1020501